Weather History for PARC - October, 2013

Change the Weather History Date:

Tuesday, October 1, 2013

  Actual Average Record
Temperature  
Mean Temperature 28 °F -  
Max Temperature 30 °F 30 °F 50 °F (2003)
Min Temperature 26 °F 11 °F -13 °F (1970)
Degree Days  
Heating Degree Days 37    
Moisture  
Dew Point 26 °F    
Average Humidity 89    
Maximum Humidity 93    
Minimum Humidity 86    
Precipitation  
Precipitation 0.00 in - - ()
Sea Level Pressure  
Sea Level Pressure 29.93 in    
Wind  
Wind Speed 5 mph (NE)    
Max Wind Speed 8 mph    
Max Gust Speed -    
Visibility 8 miles    
Events      
Averages and records for this station are not official NWS values.
T = Trace of Precipitation, MM = Missing Value Source: NWS Daily Summary

Daily Weather History Graph

Daily Weather History Graph

Search for Another Location

Airport or City:

Trip Planner

Search our weather history database for the weather conditions in past years. The results will help you decide how hot, cold, wet, or windy it might be!

Date:

Astronomy

Oct. 01, 2013 Rise Set
Actual Time 7:57 AM AKDT 7:04 PM AKDT
Civil Twilight 7:01 AM AKDT 8:00 PM AKDT
Nautical Twilight 5:54 AM AKDT 9:06 PM AKDT
Astronomical Twilight 4:39 AM AKDT 10:20 PM AKDT
Moon 3:24 AM AKDT (10/1) 6:12 PM AKDT (10/1)
Length of Visible Light 12h 58m
Length of Day
11h 07m
Waning Crescent, 11% of the Moon is Illuminated
Oct 1
Waning Crescent
Oct 4
New
Oct 11
First Quarter
Oct 18
Full
Oct 26
Last Quarter

Hourly Weather History & Observations

Time (AKDT) Temp. Windchill Dew Point Humidity Pressure Visibility Wind Dir Wind Speed Gust Speed Precip Events Conditions
12:16 AM 28.4 °F 23.3 °F 24.8 °F 86% 29.91 in 10.0 mi NNE 4.6 mph - N/A   Overcast
12:36 AM 28.4 °F 24.6 °F 24.8 °F 86% 29.91 in 10.0 mi NNE 3.5 mph - N/A   Overcast
12:56 AM 28.4 °F 24.6 °F 24.8 °F 86% 29.91 in 10.0 mi NNE 3.5 mph - N/A   Overcast
1:16 AM 28.4 °F 24.6 °F 26.6 °F 93% 29.91 in 10.0 mi NE 3.5 mph - N/A   Overcast
1:36 AM 28.4 °F 23.3 °F 24.8 °F 86% 29.91 in 10.0 mi ENE 4.6 mph - N/A   Overcast
1:56 AM 28.4 °F 23.3 °F 24.8 °F 86% 29.91 in 10.0 mi ENE 4.6 mph - N/A   Overcast
2:16 AM 28.4 °F 23.3 °F 24.8 °F 86% 29.91 in 10.0 mi NE 4.6 mph - N/A   Overcast
2:36 AM 28.4 °F 22.2 °F 24.8 °F 86% 29.91 in 10.0 mi NNE 5.8 mph - N/A   Overcast
2:56 AM 28.4 °F 21.2 °F 24.8 °F 86% 29.91 in 10.0 mi NNE 6.9 mph - N/A   Overcast
3:16 AM 28.4 °F 22.2 °F 24.8 °F 86% 29.91 in 10.0 mi NNE 5.8 mph - N/A   Overcast
3:36 AM 28.4 °F 23.3 °F 24.8 °F 86% 29.91 in 10.0 mi ENE 4.6 mph - N/A   Overcast
3:56 AM 28.4 °F 23.3 °F 24.8 °F 86% 29.91 in 10.0 mi ENE 4.6 mph - N/A   Overcast
4:16 AM 28.4 °F 24.6 °F 24.8 °F 86% 29.91 in 10.0 mi East 3.5 mph - N/A   Overcast
4:36 AM 28.4 °F 23.3 °F 24.8 °F 86% 29.91 in 10.0 mi ENE 4.6 mph - N/A   Overcast
4:56 AM 28.4 °F 22.2 °F 24.8 °F 86% 29.91 in 10.0 mi ENE 5.8 mph - N/A   Overcast
5:16 AM 26.6 °F 20.0 °F 23.0 °F 86% 29.91 in 10.0 mi NE 5.8 mph - N/A   Overcast
5:36 AM 26.6 °F 22.6 °F 24.8 °F 93% 29.91 in 10.0 mi NNE 3.5 mph - N/A   Overcast
5:56 AM 26.6 °F 20.0 °F 23.0 °F 86% 29.92 in 10.0 mi NNE 5.8 mph - N/A   Overcast
6:16 AM 26.6 °F 21.2 °F 24.8 °F 93% 29.92 in 10.0 mi NNE 4.6 mph - N/A   Overcast
6:36 AM 26.6 °F 21.2 °F 24.8 °F 93% 29.92 in 10.0 mi NNE 4.6 mph - N/A   Overcast
6:56 AM 26.6 °F 21.2 °F 24.8 °F 93% 29.92 in 10.0 mi ENE 4.6 mph - N/A   Overcast
7:16 AM 28.4 °F 21.2 °F 24.8 °F 86% 29.92 in 7.0 mi NE 6.9 mph - N/A   Overcast
7:36 AM 28.4 °F 20.4 °F 24.8 °F 86% 29.92 in 9.0 mi ENE 8.1 mph - N/A   Overcast
7:56 AM 28.4 °F 21.2 °F 24.8 °F 86% 29.93 in 5.0 mi NE 6.9 mph - N/A   Overcast
8:16 AM 28.4 °F 21.2 °F 24.8 °F 86% 29.93 in 8.0 mi NNE 6.9 mph - N/A   Overcast
8:36 AM 26.6 °F 20.0 °F 24.8 °F 93% 29.93 in 10.0 mi NNE 5.8 mph - N/A   Overcast
8:56 AM 28.4 °F 23.3 °F 24.8 °F 86% 29.93 in 10.0 mi NNE 4.6 mph - N/A   Overcast
9:16 AM 28.4 °F 24.6 °F 24.8 °F 86% 29.93 in 9.0 mi NNE 3.5 mph - N/A   Overcast
9:36 AM 28.4 °F 24.6 °F 24.8 °F 86% 29.93 in 4.0 mi North 3.5 mph - N/A   Overcast
9:56 AM 28.4 °F 24.6 °F 24.8 °F 86% 29.93 in 5.0 mi NE 3.5 mph - N/A   Overcast
10:16 AM 28.4 °F 23.3 °F 24.8 °F 86% 29.93 in 3.0 mi NE 4.6 mph - N/A   Overcast
10:36 AM 28.4 °F 23.3 °F 26.6 °F 93% 29.93 in 1.8 mi NE 4.6 mph - N/A   Overcast
10:56 AM 28.4 °F 21.2 °F 26.6 °F 93% 29.94 in 3.0 mi ENE 6.9 mph - N/A   Overcast
11:16 AM 28.4 °F 23.3 °F 26.6 °F 93% 29.94 in 2.0 mi ENE 4.6 mph - N/A   Overcast
11:36 AM 28.4 °F 23.3 °F 26.6 °F 93% 29.94 in 1.8 mi NNE 4.6 mph - N/A   Overcast
11:56 AM 28.4 °F 23.3 °F 26.6 °F 93% 29.94 in 2.0 mi NNE 4.6 mph - N/A   Overcast
12:16 PM 28.4 °F 20.4 °F 26.6 °F 93% 29.94 in 1.8 mi NNE 8.1 mph - N/A   Overcast
12:36 PM 28.4 °F 21.2 °F 26.6 °F 93% 29.94 in 2.0 mi NNE 6.9 mph - N/A   Overcast
12:56 PM 30.2 °F 22.6 °F 26.6 °F 86% 29.94 in 2.0 mi NNE 8.1 mph - N/A   Overcast
1:16 PM 30.2 °F 23.4 °F 26.6 °F 86% 29.94 in 1.5 mi NNE 6.9 mph - N/A   Overcast
1:36 PM 30.2 °F 24.3 °F 26.6 °F 86% 29.94 in 1.2 mi NNE 5.8 mph - N/A   Overcast
1:56 PM 30.2 °F 23.4 °F 26.6 °F 86% 29.94 in 1.2 mi NNE 6.9 mph - N/A   Overcast
2:16 PM 30.2 °F 23.4 °F 26.6 °F 86% 29.94 in 7.0 mi NNE 6.9 mph - N/A   Overcast
2:36 PM 30.2 °F 23.4 °F 26.6 °F 86% 29.94 in 9.0 mi NNE 6.9 mph - N/A   Overcast
2:56 PM 30.2 °F 22.6 °F 26.6 °F 86% 29.94 in 5.0 mi NNE 8.1 mph - N/A   Overcast
3:16 PM 30.2 °F 23.4 °F 26.6 °F 86% 29.93 in 7.0 mi NE 6.9 mph - N/A   Overcast
3:36 PM 30.2 °F 25.4 °F 26.6 °F 86% 29.93 in 2.5 mi North 4.6 mph - N/A   Overcast
3:56 PM 30.2 °F 24.3 °F 26.6 °F 86% 29.93 in 1.8 mi NNE 5.8 mph - N/A   Overcast
4:36 PM 30.2 °F 24.3 °F 26.6 °F 86% 29.93 in 6.0 mi North 5.8 mph - N/A   Overcast
4:56 PM 30.2 °F 23.4 °F 26.6 °F 86% 29.93 in 5.0 mi NE 6.9 mph - N/A   Overcast
5:16 PM 30.2 °F 25.4 °F 26.6 °F 86% 29.93 in 2.0 mi NNE 4.6 mph - N/A   Overcast
5:36 PM 30.2 °F 24.3 °F 26.6 °F 86% 29.93 in 8.0 mi NE 5.8 mph - N/A   Overcast
5:56 PM 30.2 °F 24.3 °F 26.6 °F 86% 29.93 in 10.0 mi NE 5.8 mph - N/A   Overcast
6:16 PM 30.2 °F 25.4 °F 26.6 °F 86% 29.93 in 10.0 mi NE 4.6 mph - N/A   Overcast
6:36 PM 30.2 °F 25.4 °F 26.6 °F 86% 29.93 in 10.0 mi NE 4.6 mph - N/A   Overcast
6:56 PM 30.2 °F 25.4 °F 26.6 °F 86% 29.93 in 10.0 mi NE 4.6 mph - N/A   Overcast
7:16 PM 30.2 °F 24.3 °F 26.6 °F 86% 29.93 in 10.0 mi NE 5.8 mph - N/A   Overcast
7:36 PM 30.2 °F 24.3 °F 26.6 °F 86% 29.93 in 10.0 mi NNE 5.8 mph - N/A   Overcast
7:56 PM 28.4 °F 21.2 °F 26.6 °F 93% 29.93 in 10.0 mi NE 6.9 mph - N/A   Overcast
8:16 PM 28.4 °F 21.2 °F 26.6 °F 93% 29.93 in 10.0 mi NE 6.9 mph - N/A   Overcast
8:36 PM 28.4 °F 22.2 °F 26.6 °F 93% 29.93 in 9.0 mi NE 5.8 mph - N/A   Overcast
8:56 PM 28.4 °F 21.2 °F 26.6 °F 93% 29.93 in 10.0 mi NNE 6.9 mph - N/A   Overcast
9:16 PM 28.4 °F 22.2 °F 26.6 °F 93% 29.93 in 10.0 mi NNE 5.8 mph - N/A   Overcast
9:36 PM 28.4 °F 23.3 °F 26.6 °F 93% 29.94 in 10.0 mi NE 4.6 mph - N/A   Overcast
9:56 PM 28.4 °F 24.6 °F 26.6 °F 93% 29.94 in 10.0 mi NE 3.5 mph - N/A   Overcast
10:16 PM 28.4 °F - 26.6 °F 93% 29.94 in 10.0 mi Calm Calm - N/A   Overcast
10:36 PM 28.4 °F - 26.6 °F 93% 29.94 in 10.0 mi Calm Calm - N/A   Overcast
10:56 PM 28.4 °F 24.6 °F 26.6 °F 93% 29.94 in 10.0 mi ENE 3.5 mph - N/A   Overcast
11:16 PM 28.4 °F 24.6 °F 26.6 °F 93% 29.94 in 10.0 mi ENE 3.5 mph - N/A   Overcast
11:36 PM 28.4 °F 24.6 °F 26.6 °F 93% 29.94 in 10.0 mi East 3.5 mph - N/A   Overcast
11:56 PM 28.4 °F 23.3 °F 26.6 °F 93% 29.94 in 10.0 mi East 4.6 mph - N/A   Overcast